Time,TemperatureF,DewpointF,PressureIn,WindDirection,WindDirectionDegrees,WindSpeedMPH,WindSpeedGustMPH,Humidity,HourlyPrecipIn,Conditions,Clouds,dailyrainin,SoftwareType,DateUTC
2013-04-29 00:00:00,49.8,48.2,29.76,ESE,112,0.0,0.0,94,0.00,,SKC,0.00,VWS V14.01,2013-04-29 05:00:00,
2013-04-29 00:20:00,49.8,48.5,29.74,East,90,0.0,0.0,95,0.00,,SKC,0.00,VWS V14.01,2013-04-29 05:20:00,
2013-04-29 00:40:00,49.3,47.9,29.76,East,90,0.0,0.0,95,0.00,,SKC,0.00,VWS V14.01,2013-04-29 05:40:00,
2013-04-29 01:00:00,48.7,47.1,29.76,SE,135,0.0,0.0,94,0.00,,SKC,0.00,VWS V14.01,2013-04-29 06:00:00,
2013-04-29 06:40:00,38.7,37.3,28.35,ESE,112,0.0,0.0,95,0.00,,SKC,0.00,VWS V14.01,2013-04-29 11:40:00,
2013-04-29 07:00:00,38.8,37.8,29.71,ESE,112,0.0,0.0,96,0.00,,SKC,0.00,VWS V14.01,2013-04-29 12:00:00,
2013-04-29 07:20:00,39.0,38.0,29.71,ESE,112,0.0,0.0,96,0.00,,SKC,0.00,VWS V14.01,2013-04-29 12:20:00,
2013-04-29 07:39:00,40.8,40.0,29.71,ESE,112,0.0,0.0,97,0.00,,SKC,0.00,VWS V14.01,2013-04-29 12:39:00,
2013-04-29 08:00:00,43.5,43.0,29.71,ESE,112,0.0,0.0,98,0.00,,SKC,0.00,VWS V14.01,2013-04-29 13:00:00,
2013-04-29 08:20:00,46.2,45.2,29.71,East,90,0.0,0.0,96,0.00,,SKC,0.00,VWS V14.01,2013-04-29 13:20:00,
2013-04-29 08:40:00,47.3,45.1,29.71,ENE,68,0.0,4.3,92,0.00,,SKC,0.00,VWS V14.01,2013-04-29 13:40:00,
2013-04-29 09:00:00,48.7,45.7,29.71,SSW,202,0.0,4.3,89,0.00,,SKC,0.00,VWS V14.01,2013-04-29 14:00:00,
2013-04-29 09:20:00,52.9,47.5,29.71,SW,225,0.0,0.0,82,0.00,,SKC,0.00,VWS V14.01,2013-04-29 14:20:00,
2013-04-29 09:40:00,55.6,46.0,29.71,ESE,112,0.0,6.3,70,0.00,,SKC,0.00,VWS V14.01,2013-04-29 14:40:00,
2013-04-29 10:00:00,58.1,47.2,29.71,NE,45,1.8,5.5,67,0.00,,SKC,0.00,VWS V14.01,2013-04-29 15:00:00,
2013-04-29 10:20:00,59.7,45.4,29.71,SSW,202,2.8,7.0,59,0.00,,SKC,0.00,VWS V14.01,2013-04-29 15:20:00,
2013-04-29 10:40:00,61.3,44.1,29.71,NNE,22,2.3,6.3,53,0.00,,SKC,0.00,VWS V14.01,2013-04-29 15:40:00,
2013-04-29 11:00:00,62.6,42.7,29.71,NNW,338,3.1,6.7,48,0.00,,SKC,0.00,VWS V14.01,2013-04-29 16:00:00,
2013-04-29 11:20:00,63.9,42.1,29.71,NE,45,2.6,6.3,45,0.00,,SKC,0.00,VWS V14.01,2013-04-29 16:20:00,
2013-04-29 11:40:00,65.1,42.7,29.71,South,180,2.8,7.4,44,0.00,,SKC,0.00,VWS V14.01,2013-04-29 16:40:00,
2013-04-29 12:00:00,67.3,44.7,29.71,NE,45,1.8,5.9,44,0.00,,SKC,0.00,VWS V14.01,2013-04-29 17:00:00,
2013-04-29 12:20:00,67.5,42.3,29.68,SE,135,1.5,9.8,40,0.00,,SKC,0.00,VWS V14.01,2013-04-29 17:20:00,
2013-04-29 12:40:00,68.5,42.6,29.68,ENE,68,3.1,11.0,39,0.00,,SKC,0.00,VWS V14.01,2013-04-29 17:40:00,
2013-04-29 13:00:00,69.3,42.6,29.68,NNW,338,2.3,9.8,38,0.00,,SKC,0.00,VWS V14.01,2013-04-29 18:00:00,
2013-04-29 13:20:00,69.8,42.4,29.68,WSW,248,3.9,9.8,37,0.00,,SKC,0.00,VWS V14.01,2013-04-29 18:20:00,
2013-04-29 13:40:00,70.9,43.3,29.68,WSW,248,4.1,14.9,37,0.00,,SKC,0.00,VWS V14.01,2013-04-29 18:40:00,
2013-04-29 14:00:00,70.5,43.0,29.68,East,90,1.3,10.6,37,0.00,,SKC,0.00,VWS V14.01,2013-04-29 19:00:00,
2013-04-29 14:20:00,71.1,42.0,29.68,WNW,292,4.4,10.6,35,0.00,,SKC,0.00,VWS V14.01,2013-04-29 19:20:00,
2013-04-29 14:40:00,72.1,41.5,29.65,WSW,248,2.8,11.4,33,0.00,,SKC,0.00,VWS V14.01,2013-04-29 19:40:00,
2013-04-29 15:00:00,72.5,41.8,29.65,SSW,202,3.1,12.9,33,0.00,,SKC,0.00,VWS V14.01,2013-04-29 20:00:00,
2013-04-29 15:20:00,73.2,42.4,29.65,WSW,248,2.8,9.4,33,0.00,,SKC,0.00,VWS V14.01,2013-04-29 20:20:00,
2013-04-29 15:40:00,73.2,42.4,29.65,East,90,3.3,11.4,33,0.00,,SKC,0.00,VWS V14.01,2013-04-29 20:40:00,
2013-04-29 16:00:00,72.9,41.3,29.65,ENE,68,4.4,11.4,32,0.00,,SKC,0.00,VWS V14.01,2013-04-29 21:00:00,
2013-04-29 16:20:00,72.1,40.7,29.62,ESE,112,4.9,13.3,32,0.00,,SKC,0.00,VWS V14.01,2013-04-29 21:20:00,
2013-04-29 16:40:00,71.6,40.2,29.65,SSE,158,1.8,12.9,32,0.00,,SKC,0.00,VWS V14.01,2013-04-29 21:40:00,
2013-04-29 16:59:00,71.6,40.2,29.62,ESE,112,3.1,9.8,32,0.00,,SKC,0.00,VWS V14.01,2013-04-29 21:59:00,
2013-04-29 17:20:00,70.7,39.4,29.62,SSE,158,2.3,11.4,32,0.00,,SKC,0.00,VWS V14.01,2013-04-29 22:20:00,
2013-04-29 17:40:00,69.3,39.0,29.62,North,0,2.3,11.4,33,0.00,,SKC,0.00,VWS V14.01,2013-04-29 22:40:00,
2013-04-29 17:59:00,69.4,39.1,29.62,NNE,22,1.3,11.4,33,0.00,,SKC,0.00,VWS V14.01,2013-04-29 22:59:00,
2013-04-29 18:19:00,69.3,39.0,29.62,South,180,3.9,11.0,33,0.00,,SKC,0.00,VWS V14.01,2013-04-29 23:19:00,
2013-04-29 18:40:00,68.7,39.2,29.62,SSE,158,1.8,10.6,34,0.00,,SKC,0.00,VWS V14.01,2013-04-29 23:40:00,
2013-04-29 19:00:00,68.0,38.6,29.62,SE,135,1.5,11.4,34,0.00,,SKC,0.00,VWS V14.01,2013-04-30 00:00:00,
2013-04-29 19:20:00,66.9,39.1,29.62,South,180,1.3,7.0,36,0.00,,SKC,0.00,VWS V14.01,2013-04-30 00:20:00,
2013-04-29 19:40:00,65.1,39.6,29.62,ESE,112,1.3,5.9,39,0.00,,SKC,0.00,VWS V14.01,2013-04-30 00:40:00,
2013-04-29 20:00:00,62.4,40.2,29.62,ESE,112,0.0,2.0,44,0.00,,SKC,0.00,VWS V14.01,2013-04-30 01:00:00,
2013-04-29 20:19:00,59.7,39.5,29.62,ENE,68,0.0,4.3,47,0.00,,SKC,0.00,VWS V14.01,2013-04-30 01:19:00,
2013-04-29 20:40:00,58.1,39.6,29.62,ENE,68,1.8,5.1,50,0.00,,SKC,0.00,VWS V14.01,2013-04-30 01:40:00,
2013-04-29 21:00:00,57.0,39.1,29.62,ENE,68,1.8,5.1,51,0.00,,SKC,0.00,VWS V14.01,2013-04-30 02:00:00,
2013-04-29 21:20:00,55.9,38.6,29.62,ENE,68,2.8,4.3,52,0.00,,SKC,0.00,VWS V14.01,2013-04-30 02:20:00,
2013-04-29 21:40:00,54.5,38.2,29.62,East,90,1.0,4.7,54,0.00,,SKC,0.00,VWS V14.01,2013-04-30 02:40:00,
2013-04-29 22:00:00,53.1,37.8,29.62,East,90,0.0,4.3,56,0.00,,SKC,0.00,VWS V14.01,2013-04-30 03:00:00,
2013-04-29 22:20:00,52.0,38.1,29.59,ENE,68,1.8,3.5,59,0.00,,SKC,0.00,VWS V14.01,2013-04-30 03:20:00,
2013-04-29 22:39:00,51.6,38.6,29.59,ENE,68,0.0,2.7,61,0.00,,SKC,0.00,VWS V14.01,2013-04-30 03:39:00,
2013-04-29 23:00:00,51.1,39.3,29.59,ENE,68,0.0,3.9,64,0.00,,SKC,0.00,VWS V14.01,2013-04-30 04:00:00,
2013-04-29 23:20:00,49.5,40.8,29.59,ESE,112,0.0,4.3,72,0.00,,SKC,0.00,VWS V14.01,2013-04-30 04:20:00,
2013-04-29 23:40:00,48.7,40.5,29.59,ENE,68,2.3,3.9,73,0.00,,SKC,0.00,VWS V14.01,2013-04-30 04:40:00,